CAPE
0 0 0 0 0 0 0 0 0 0 0 0 0 0 0 0 0 0 0 0 0 0 0 0 0 0 0 0 123 5 0 0 59 747 842 608 580 190 254 453 445 415 330 294 389 399 383
0 0 0 0 0 0 0 0 0 0 0 0 0 0 0 0 0 0 0 0 0 0 0 0 0 0 0 0 83 41 75 96 629 770 628 469 370 498 732 485 211 300 374 340 288 414 432
0 0 0 0 0 0 0 0 0 0 0 0 0 0 0 0 0 0 0 0 0 0 0 0 0 0 0 0 54 192 201 368 526 426 316 415 420 687 521 443 408 457 364 271 323 467 548
0 0 0 0 0 0 0 0 0 0 0 0 0 0 0 0 0 0 0 0 0 0 0 0 0 0 0 0 10 49 303 413 422 315 251 464 676 676 832 394 250 313 185 159 216 405 605
0 0 0 0 0 0 0 0 0 0 0 0 0 0 0 0 0 0 0 0 0 0 0 0 0 0 0 0 3 63 282 427 518 476 480 504 506 638 289 0 0 82 49 62 253 317 569
0 0 0 0 0 0 0 0 0 0 0 0 0 0 0 0 0 0 0 0 0 0 0 0 0 0 0 0 0 37 127 351 523 534 492 626 583 340 51 18 7 19 63 35 51 122 227
0 0 0 0 0 0 0 0 0 0 0 0 0 0 0 0 0 0 0 0 0 0 0 0 0 0 0 0 4 17 34 102 356 256 205 435 276 33 0 0 0 27 81 44 48 60 154
0 0 0 0 0 0 0 0 0 0 0 1 0 0 0 0 0 0 0 0 0 0 0 0 0 0 0 0 0 0 70 152 196 170 178 169 144 51 0 0 0 41 89 4 24 28 24
0 0 0 0 0 0 0 0 0 0 0 0 0 0 0 0 0 0 0 0 0 0 0 0 0 0 0 0 0 0 8 72 33 164 125 70 104 4 6 6 6 62 29 9 0 0 22
0 0 0 0 0 0 0 0 0 0 0 0 0 0 0 0 0 0 0 0 0 0 0 0 0 0 0 0 0 0 0 0 15 22 48 52 77 60 3 0 8 58 9 0 2 1 23
0 0 0 0 0 0 0 0 0 0 0 0 0 0 0 0 0 0 0 0 0 0 0 0 0 0 0 0 0 0 0 0 0 0 16 2 22 42 20 16 20 6 1 0 4 12 41
0 0 0 0 0 0 0 0 0 0 0 0 0 0 0 0 0 0 0 0 0 0 0 0 0 0 0 0 0 0 0 0 0 0 0 0 0 0 0 0 0 0 0 0 11 30 23
0 0 0 0 0 0 0 0 0 0 0 0 0 0 0 0 0 0 0 0 0 0 0 0 0 0 0 0 0 0 0 0 0 0 0 0 0 0 0 0 0 0 0 2 24 8 26
0 0 0 0 0 0 0 0 0 0 0 0 0 0 0 0 0 0 0 0 0 0 0 0 0 0 0 0 0 0 0 0 0 0 0 0 0 0 0 0 0 0 0 41 39 39 11
0 0 0 0 0 0 0 0 0 0 0 0 0 0 0 0 0 0 0 0 0 0 0 0 0 0 0 0 0 0 0 0 0 0 0 0 0 2 1 12 0 0 0 0 19 27 2
0 0 0 0 0 0 0 0 0 0 0 0 0 0 0 0 0 0 0 0 0 0 0 0 0 0 0 0 0 0 0 0 0 0 0 0 0 0 0 0 0 0 0 0 7 0 7
0 0 0 0 0 0 0 0 0 0 0 0 0 0 0 0 0 0 0 0 0 0 0 0 0 0 0 0 0 0 0 0 0 0 0 0 0 0 0 0 0 0 0 0 0 3 4
0 0 0 0 0 0 0 0 0 0 0 0 0 0 0 0 0 0 0 0 0 0 0 0 0 0 0 0 0 0 0 0 0 0 0 0 0 0 0 0 0 0 0 0 0 0 0
1 1 0 0 0 0 0 0 0 0 0 0 0 0 0 0 0 0 0 0 0 0 0 0 0 0 0 0 0 0 0 0 0 0 0 0 0 0 0 0 0 0 0 0 0 0 0
2 2 2 1 0 0 0 0 0 0 0 0 0 0 0 0 0 0 0 0 0 0 0 0 0 0 0 0 0 0 0 0 0 0 0 0 0 0 0 0 0 0 0 0 0 0 0
3 3 2 2 2 1 0 0 0 0 0 0 0 0 0 0 0 0 0 0 0 0 0 0 0 0 0 0 0 0 0 0 0 0 0 0 0 0 0 0 0 0 0 0 0 0 0
3 1 0 1 1 2 0 0 0 0 0 0 0 0 0 0 0 0 0 0 0 0 0 0 0 0 0 0 0 0 0 0 0 0 0 0 0 0 0 0 0 0 0 0 0 0 0
3 2 1 1 2 1 1 0 0 0 0 0 0 0 0 0 0 0 0 0 0 0 0 0 0 0 0 0 0 0 0 0 0 0 0 0 0 0 0 0 0 0 0 0 0 0 0
1 1 1 1 3 2 1 0 0 0 0 0 0 0 0 0 0 0 0 0 0 0 0 0 0 0 0 0 0 0 0 0 0 0 0 0 0 0 0 0 0 0 0 0 0 0 0
1 1 2 3 2 1 3 2 0 0 0 0 0 0 0 0 0 0 0 0 0 0 0 0 0 0 0 0 0 0 0 0 0 0 0 0 0 0 0 0 0 0 0 0 0 0 0
0 2 1 2 2 0 3 3 2 1 0 0 0 0 0 0 0 0 0 0 0 0 0 0 0 0 0 0 0 0 0 0 0 0 0 0 0 0 0 0 0 0 0 0 0 0 0
1 2 1 1 2 0 2 5 4 1 0 0 0 0 0 0 0 0 0 0 0 0 0 0 0 0 0 0 0 0 0 0 0 0 0 0 0 0 0 0 0 0 0 0 0 0 12
2 1 1 1 1 0 0 2 4 0 0 0 0 0 0 0 0 0 0 0 0 0 0 0 0 0 0 0 0 0 0 0 0 0 0 0 0 0 0 1 0 0 0 0 0 28 100
0 0 2 2 2 2 1 3 5 2 0 0 0 1 1 0 0 0 0 0 0 0 0 0 0 0 0 0 0 0 0 0 0 0 0 0 1 1 0 0 0 0 0 18 31 81 103
CIN
-0 -0 -0 -0 -0 -0 -0 -0 -0 -0 -0 -0 -0 -0 -0 -0 -0 -0 -0 -0 -0 -0 -0 -0 -0 -0 -0 -0 -92 -102 -0 -0 -273 -232 -40 -29 -4 -1 -11 -3 -2 -3 -4 -4 -3 -2 -1
-0 -0 -0 -0 -0 -0 -0 -0 -0 -0 -0 -0 -0 -0 -0 -0 -0 -0 -0 -0 -0 -0 -0 -0 -0 -0 -0 -0 -112 -297 -263 -361 -123 -86 -15 -24 -18 -25 -3 -4 -7 -11 -11 -11 -9 -7 -2
-0 -0 -0 -0 -0 -0 -0 -0 -0 -0 -0 -0 -0 -0 -0 -0 -0 -0 -0 -0 -0 -0 -0 -0 -0 -0 -0 -0 -107 -189 -178 -147 -72 -56 -31 -26 -44 -24 -5 -2 -17 -11 -7 -24 -10 -16 -6
-0 -0 -0 -0 -0 -0 -0 -0 -0 -0 -0 -0 -0 -0 -0 -0 -0 -0 -0 -0 -0 -0 -0 -0 -0 -0 -0 -0 -40 -171 -109 -79 -62 -60 -52 -46 -66 -49 -34 -3 -121 -13 -88 -4 -17 -24 -26
-0 -0 -0 -0 -0 -0 -0 -0 -0 -0 -0 -0 -0 -0 -0 -0 -0 -0 -0 -0 -0 -0 -0 -0 -0 -0 -0 -0 -37 -162 -72 -42 -41 -55 -60 -81 -81 -46 -25 -60 -0 -5 -7 -4 -7 -23 -20
-0 -0 -0 -0 -0 -0 -0 -0 -0 -0 -0 -0 -0 -0 -0 -0 -0 -0 -0 -0 -0 -0 -0 -0 -0 -0 -0 -0 -0 -119 -90 -42 -30 -24 -37 -45 -32 -21 -6 -12 -24 -3 -4 -15 -2 -6 -24
-0 -0 -0 -0 -0 -0 -0 -0 -0 -0 -0 -0 -0 -0 -0 -0 -0 -0 -0 -0 -0 -0 -0 -0 -0 -0 -0 -0 -46 -58 -150 -85 -24 -22 -15 -4 -4 -44 -8 -0 -0 -8 -3 -13 -4 -8 -11
-0 -0 -0 -0 -0 -0 -0 -0 -0 -0 -0 -0 -0 -0 -0 -0 -0 -0 -0 -0 -0 -0 -0 -0 -0 -0 -0 -0 -0 -0 -103 -38 -5 -9 -17 -16 -18 -56 -0 -0 -0 -2 -3 -76 -7 -5 -3
-0 -0 -0 -0 -0 -0 -0 -0 -0 -0 -0 -0 -0 -0 -0 -0 -0 -0 -0 -0 -0 -0 -0 -0 -0 -0 -0 -0 -0 -0 -26 -53 -45 -6 -30 -63 -34 -190 -2 -16 -4 -6 -22 -8 -0 -0 -15
-0 -0 -0 -0 -0 -0 -0 -0 -0 -0 -0 -0 -0 -0 -0 -0 -0 -0 -0 -0 -0 -0 -0 -0 -0 -0 -0 -0 -0 -0 -0 -0 -51 -32 -8 -59 -27 -55 -2 -0 -5 -7 -27 -0 -11 -13 -6
-0 -0 -0 -0 -0 -0 -0 -0 -0 -0 -0 -0 -0 -0 -0 -0 -0 -0 -0 -0 -0 -0 -0 -0 -0 -0 -0 -0 -0 -0 -0 -0 -0 -0 -27 -38 -7 -7 -8 -3 -6 -3 -1 -0 -37 -5 -5
-0 -0 -0 -0 -0 -0 -0 -0 -0 -0 -0 -0 -0 -0 -0 -0 -0 -0 -0 -0 -0 -0 -0 -0 -0 -0 -0 -0 -0 -0 -0 -0 -0 -0 -0 -0 -0 -0 -0 -0 -0 -0 -0 -0 -22 -8 -9
-0 -0 -0 -0 -0 -0 -0 -0 -0 -0 -0 -0 -0 -0 -0 -0 -0 -0 -0 -0 -0 -0 -0 -0 -0 -0 -0 -0 -0 -0 -0 -0 -0 -0 -0 -0 -0 -0 -0 -0 -0 -0 -0 -2 -9 -23 -17
-0 -0 -0 -0 -0 -0 -0 -0 -0 -0 -0 -0 -0 -0 -0 -0 -0 -0 -0 -0 -0 -0 -0 -0 -0 -0 -0 -0 -0 -0 -0 -0 -0 -0 -0 -0 -0 -0 -0 -0 -0 -0 -0 -12 -10 -9 -33
-0 -0 -0 -0 -0 -0 -0 -0 -0 -0 -0 -0 -0 -0 -0 -0 -0 -0 -0 -0 -0 -0 -0 -0 -0 -0 -0 -0 -0 -0 -0 -0 -0 -0 -0 -0 -0 -0 -25 -7 -0 -0 -0 -0 -11 -9 -2
-0 -0 -0 -0 -0 -0 -0 -0 -0 -0 -0 -0 -0 -0 -0 -0 -0 -0 -0 -0 -0 -0 -0 -0 -0 -0 -0 -0 -0 -0 -0 -0 -0 -0 -0 -0 -0 -0 -0 -0 -0 -0 -0 -0 -5 -0 -6
-0 -0 -0 -0 -0 -0 -0 -0 -0 -0 -0 -0 -0 -0 -0 -0 -0 -0 -0 -0 -0 -0 -0 -0 -0 -0 -0 -0 -0 -0 -0 -0 -0 -0 -0 -0 -0 -0 -0 -0 -0 -0 -0 -0 -0 -3 -7
-0 -0 -0 -0 -0 -0 -0 -0 -0 -0 -0 -0 -0 -0 -0 -0 -0 -0 -0 -0 -0 -0 -0 -0 -0 -0 -0 -0 -0 -0 -0 -0 -0 -0 -0 -0 -0 -0 -0 -0 -0 -0 -0 -0 -0 -0 -0
-0 -0 -0 -0 -0 -0 -0 -0 -0 -0 -0 -0 -0 -0 -0 -0 -0 -0 -0 -0 -0 -0 -0 -0 -0 -0 -0 -0 -0 -0 -0 -0 -0 -0 -0 -0 -0 -0 -0 -0 -0 -0 -0 -0 -0 -0 -0
-0 -0 -0 -0 -0 -0 -0 -0 -0 -0 -0 -0 -0 -0 -0 -0 -0 -0 -0 -0 -0 -0 -0 -0 -0 -0 -0 -0 -0 -0 -0 -0 -0 -0 -0 -0 -0 -0 -0 -0 -0 -0 -2 -0 -0 -0 -0
-0 -0 -0 -0 -0 -0 -0 -0 -0 -0 -0 -0 -0 -0 -0 -0 -0 -0 -0 -0 -0 -0 -0 -0 -0 -0 -0 -0 -0 -0 -0 -0 -0 -0 -0 -0 -0 -0 -0 -0 -0 -0 -0 -0 -0 -0 -0
-0 -0 -0 -0 -0 -0 -0 -0 -0 -0 -0 -0 -0 -0 -0 -0 -0 -0 -0 -0 -0 -0 -0 -0 -0 -0 -0 -0 -0 -0 -0 -0 -0 -0 -0 -0 -0 -0 -0 -0 -0 -0 -0 -0 -0 -0 -0
-0 -0 -0 -0 -0 -0 -0 -0 -0 -0 -0 -0 -0 -0 -0 -0 -0 -0 -0 -0 -0 -0 -0 -0 -0 -0 -0 -0 -0 -0 -0 -0 -0 -0 -0 -0 -0 -0 -0 -0 -0 -0 -0 -0 -0 -0 -0
-0 -0 -0 -0 -0 -0 -0 -1 -0 -0 -0 -0 -0 -0 -0 -0 -0 -0 -0 -0 -0 -0 -0 -0 -0 -0 -0 -0 -0 -0 -0 -0 -0 -0 -0 -0 -0 -0 -0 -0 -0 -0 -0 -0 -0 -0 -0
-0 -0 -0 -0 -0 -0 -0 -0 -1 -0 -0 -0 -0 -0 -0 -0 -0 -0 -0 -0 -0 -0 -0 -0 -0 -0 -0 -0 -0 -0 -0 -0 -0 -0 -0 -0 -0 -0 -0 -0 -0 -0 -0 -0 -0 -0 -0
-0 -0 -0 -0 -0 -0 -1 -0 -1 -1 -0 -0 -0 -0 -0 -0 -0 -0 -0 -0 -0 -0 -0 -0 -0 -0 -0 -0 -0 -0 -0 -0 -0 -0 -0 -0 -0 -0 -0 -0 -0 -0 -0 -0 -0 -0 -0
-0 -0 -0 -0 -0 -1 -2 -2 -1 -0 -0 -0 -0 -0 -0 -0 -0 -0 -0 -0 -0 -0 -0 -0 -0 -0 -0 -0 -0 -0 -0 -0 -0 -0 -0 -0 -0 -0 -0 -0 -0 -0 -0 -0 -0 -0 -5
-0 -0 -0 -0 -0 -0 -0 -5 -5 -0 -0 -0 -0 -0 -0 -0 -0 -0 -0 -0 -0 -0 -0 -0 -0 -0 -0 -0 -0 -0 -0 -0 -0 -0 -0 -0 -2 -0 -0 -3 -0 -0 -0 -0 -0 -2 -11
-0 -0 -0 -1 -0 -2 -4 -6 -2 -1 -0 -0 -0 -0 -0 -0 -0 -0 -0 -0 -0 -0 -0 -0 -0 -0 -0 -0 -0 -0 -0 -0 -0 -0 -0 -0 -5 -3 -4 -0 -0 -0 -1 -6 -5 -1 -1
Wind_Speed
15 15 15 15 16 16 17 18 18 19 20 21 22 26 27 26 26 24 24 24 24 23 21 20 18 17 15 17 12 14 24 26 25 22 21 16 11 11 14 16 17 14 17 15 15 15 15
14 15 16 17 18 18 18 18 19 20 20 22 22 23 24 27 28 27 26 26 26 25 24 22 21 18 18 14 12 12 25 25 23 22 18 16 11 11 13 14 10 16 15 14 15 15 15
16 17 18 19 20 21 21 21 20 21 21 22 24 24 25 26 27 29 28 27 27 26 25 23 21 19 22 16 15 15 22 24 22 21 18 18 17 13 12 13 16 16 14 17 16 15 15
19 20 21 22 22 23 23 23 22 21 22 21 21 22 25 26 26 27 29 28 27 26 23 19 17 19 21 16 17 17 23 24 22 22 21 20 20 16 17 16 19 18 16 19 19 16 15
21 23 24 24 24 24 24 25 25 24 23 23 20 18 19 24 24 26 28 28 25 23 20 14 16 18 22 16 18 21 22 23 22 23 23 23 21 17 16 18 13 13 17 22 18 17 15
23 24 25 25 25 26 27 27 27 26 26 25 22 16 14 19 21 23 26 26 20 21 18 20 26 21 16 18 9 14 20 23 21 22 16 16 19 20 22 12 14 13 12 16 21 19 13
24 25 26 26 27 28 29 29 27 26 26 24 22 18 12 10 15 18 21 8 7 8 16 16 16 15 13 15 13 13 14 20 23 6 21 15 21 13 12 19 19 16 12 4 20 18 13
26 27 28 28 28 28 28 29 27 26 24 22 18 12 7 7 10 14 12 10 13 17 16 17 26 24 20 17 19 15 10 12 4 30 22 23 26 19 21 23 19 17 14 24 20 22 8
28 29 29 29 30 30 29 29 27 26 24 20 14 8 8 10 11 13 14 14 17 19 5 7 17 21 19 10 18 19 6 15 34 25 34 34 33 14 23 26 22 21 19 25 21 19 16
29 30 31 33 32 31 29 29 28 26 23 20 13 8 12 14 17 18 16 15 17 18 8 8 5 11 12 17 34 9 6 12 20 30 34 38 35 33 28 29 29 28 24 26 20 19 18
31 32 33 34 33 32 31 31 30 27 25 21 16 9 15 15 14 16 15 13 14 18 11 12 9 12 13 14 19 8 10 12 40 38 28 39 37 30 31 33 30 31 30 25 25 23 22
31 32 32 33 33 33 34 34 33 30 26 21 16 8 15 16 15 14 13 13 16 16 13 15 13 12 10 5 13 12 10 8 36 38 42 46 42 38 32 33 31 30 31 29 27 25 23
32 31 32 34 35 35 36 36 35 30 23 18 14 8 15 12 13 12 13 15 15 12 14 14 13 13 12 10 6 12 14 10 15 19 29 33 30 34 26 37 37 23 36 35 32 29 26
32 33 34 36 36 37 37 36 34 29 24 20 14 9 15 13 11 12 14 14 11 13 12 15 10 10 12 11 9 9 6 8 10 24 37 35 29 12 13 22 35 37 37 38 35 33 8
33 34 36 36 37 37 36 35 34 32 27 22 13 12 13 21 15 13 14 13 11 12 8 11 11 9 11 8 6 7 5 15 18 21 28 32 34 36 28 19 24 33 38 37 43 41 39
34 35 36 37 37 36 36 36 36 33 28 20 11 11 20 19 12 14 14 12 11 10 9 10 10 10 11 5 14 15 8 15 16 20 25 30 36 31 27 19 23 32 34 37 29 43 43
34 35 37 37 37 37 37 36 36 34 29 17 12 13 18 16 13 14 11 14 11 12 8 8 7 7 8 6 1 3 1 17 19 28 27 31 36 36 32 22 29 29 21 29 40 40 39
34 35 37 37 37 37 38 37 36 36 32 18 12 10 19 14 11 12 12 13 13 9 10 8 6 3 2 6 3 3 4 15 17 25 30 31 30 35 38 30 21 30 31 28 26 39 40
34 35 37 36 37 37 38 37 36 35 32 17 13 16 21 14 12 16 15 11 12 14 14 14 10 12 13 11 16 14 13 19 24 27 27 28 20 26 23 30 33 24 30 32 37 38 41
35 35 36 36 37 37 37 37 37 36 30 23 8 15 20 20 20 17 18 14 13 16 14 15 12 14 11 14 12 14 14 18 18 22 23 28 32 36 40 42 41 35 30 30 34 35 34
35 35 35 36 36 37 37 37 37 35 31 24 23 20 20 21 21 23 20 19 18 20 20 20 17 14 21 21 23 21 21 25 23 24 27 25 32 38 46 47 47 47 42 42 40 38 42
34 34 35 36 36 37 37 36 37 36 31 27 23 23 24 14 17 21 17 20 20 21 23 19 21 23 23 22 23 28 30 27 28 33 31 29 35 36 45 44 48 53 49 51 52 47 48
34 35 35 36 36 37 36 35 35 35 32 27 28 23 20 18 22 23 23 23 23 24 22 17 21 23 24 25 27 28 27 31 31 32 30 33 36 39 47 42 45 55 48 50 51 55 52
35 36 36 36 36 37 35 34 34 33 33 29 28 24 23 22 24 25 22 23 23 23 21 21 21 22 22 27 28 25 21 23 24 25 25 30 32 34 43 42 49 49 44 44 48 47 46
36 37 37 37 37 36 35 34 34 34 33 29 28 26 24 24 26 19 22 26 24 20 17 19 22 19 22 25 29 28 30 21 16 16 16 17 20 26 34 41 44 46 39 39 43 54 47
37 38 38 37 37 36 35 34 32 32 33 29 25 25 23 24 23 24 25 22 23 26 26 20 18 18 21 23 24 28 28 28 24 21 14 20 11 14 18 21 36 46 41 38 44 59 43
38 38 38 37 37 35 34 33 31 31 31 29 22 25 23 24 18 24 21 25 26 22 21 23 23 23 16 22 25 25 26 26 25 22 22 21 19 17 19 24 28 45 48 41 42 46 32
38 38 38 37 36 35 33 31 29 29 28 28 24 22 26 23 23 18 18 21 19 15 21 24 27 14 20 22 24 24 23 25 31 25 19 24 27 26 28 23 33 26 33 39 42 31 27
38 38 38 37 35 34 33 31 27 25 25 26 23 23 23 20 22 29 15 9 9 12 20 19 17 22 19 23 21 24 28 31 22 29 17 27 28 33 31 31 51 44 38 35 32 28 23
Wind_Direction
311 310 307 305 302 300 298 294 290 285 282 279 275 283 284 282 278 269 267 269 271 265 258 252 240 240 223 161 348 207 165 155 159 166 153 158 180 262 75 110 127 116 76 103 109 109 124
314 314 313 311 309 307 303 298 296 292 287 285 277 273 270 278 279 276 268 266 269 268 260 255 245 248 237 169 267 243 158 147 172 168 176 203 214 239 157 136 178 23 118 101 84 114 120
321 319 319 317 315 312 308 304 298 295 290 287 285 278 273 269 267 275 273 267 267 266 264 263 256 265 242 289 253 245 209 173 195 197 211 235 248 203 213 159 87 113 120 102 64 87 107
327 326 324 322 319 314 311 307 301 295 292 286 281 274 276 273 267 266 271 272 265 267 269 279 284 277 274 269 255 252 226 205 222 222 230 250 242 216 192 217 270 50 226 65 28 53 74
330 329 328 325 320 316 312 308 304 298 294 289 280 269 263 268 262 263 265 268 268 271 275 288 291 282 274 279 267 245 238 235 239 227 233 245 229 197 202 37 139 25 40 24 57 44 47
332 330 328 325 322 319 316 312 309 304 300 293 281 267 256 255 253 252 257 257 279 274 278 273 263 279 285 287 288 274 261 256 269 272 193 183 193 204 300 216 311 287 287 65 20 36 63
333 331 329 326 323 321 318 316 309 303 298 291 280 266 245 224 233 236 263 26 11 334 274 276 297 273 303 292 291 293 280 274 268 296 205 172 215 201 183 299 288 243 209 128 17 30 52
337 335 332 328 326 324 322 319 313 307 300 292 278 253 200 157 186 202 111 81 336 284 309 278 268 275 286 287 285 289 289 286 298 224 203 205 211 232 312 278 246 231 210 329 331 284 174
339 336 334 332 331 328 326 322 317 313 306 295 274 217 160 139 165 114 104 36 276 274 40 339 288 281 288 285 285 286 270 279 253 273 244 246 234 319 319 264 239 235 278 295 266 260 247
340 337 337 336 334 331 328 326 323 319 314 306 279 171 133 126 96 85 75 132 242 269 78 79 17 316 313 298 261 224 228 278 279 270 273 262 255 273 289 259 265 247 322 290 248 251 248
343 341 340 338 336 333 331 330 328 324 322 316 302 160 123 115 135 110 129 172 190 164 32 68 44 327 318 308 316 320 196 272 252 262 278 264 270 284 282 270 287 267 274 259 250 245 245
343 342 340 339 338 336 335 334 332 328 324 319 307 198 115 108 124 133 170 176 151 127 50 79 108 113 138 15 316 323 338 186 246 266 264 263 263 272 282 278 287 282 266 250 239 230 229
342 340 340 340 340 338 337 336 334 328 314 302 288 249 107 147 134 165 175 154 130 143 94 78 101 146 150 103 70 319 312 313 298 287 279 280 270 275 281 277 275 293 255 262 247 236 236
341 341 340 340 340 340 340 337 332 326 311 292 263 166 92 104 127 159 157 155 136 79 124 54 119 160 164 46 134 146 152 186 309 291 273 279 282 271 263 274 272 264 264 263 261 250 332
341 341 341 340 339 339 338 337 335 329 317 293 237 110 75 331 45 138 158 149 111 97 112 193 204 160 173 87 130 57 114 201 329 302 292 285 278 267 285 292 283 275 269 273 264 262 257
340 341 341 340 339 338 337 336 336 332 322 293 163 165 347 306 118 150 156 164 112 140 181 183 182 55 186 22 357 220 15 342 326 315 301 287 283 282 292 299 290 282 280 272 277 256 252
338 340 340 340 338 338 337 336 336 333 324 290 165 149 322 274 149 145 150 63 90 70 102 101 140 166 189 197 162 197 299 338 322 295 300 291 269 272 287 289 289 292 283 275 270 267 266
335 337 339 338 337 337 337 337 336 337 331 308 202 148 306 253 136 94 71 59 52 68 61 61 66 120 65 15 353 310 295 325 334 311 296 289 295 282 272 287 297 286 284 288 273 265 269
332 334 336 335 336 336 336 336 335 335 340 286 254 40 339 249 82 43 42 58 37 17 19 16 17 10 0 353 342 348 341 331 319 311 310 305 303 298 295 285 280 287 283 281 276 273 266
332 333 334 333 334 335 335 336 335 332 326 322 352 14 15 29 14 23 14 24 21 14 9 3 355 350 345 336 331 322 322 327 331 319 315 305 293 285 282 276 270 290 285 280 276 271 273
330 330 330 332 331 333 334 335 334 332 325 329 344 9 12 3 1 358 359 358 357 353 352 348 351 352 342 335 329 324 321 318 314 317 307 301 293 287 278 276 274 274 276 273 271 273 268
324 325 326 329 330 332 333 333 334 333 325 356 355 355 351 12 8 357 3 357 351 348 346 343 340 336 335 330 327 320 317 312 307 305 302 298 294 293 284 282 276 271 271 269 265 268 268
320 323 325 326 328 332 330 331 333 335 334 355 350 357 3 2 354 350 346 345 343 343 348 349 342 337 331 329 325 320 314 307 303 302 300 297 293 290 284 285 282 271 269 271 271 265 267
320 322 321 324 327 329 329 329 331 333 340 343 354 356 353 347 348 346 345 344 342 340 337 334 335 332 336 332 326 320 308 303 301 297 293 292 290 288 285 285 274 276 277 276 273 271 270
321 320 321 322 326 329 329 330 333 334 335 344 354 354 352 345 343 352 348 342 341 342 338 336 337 340 341 335 331 331 329 317 300 303 301 290 287 288 285 282 283 279 279 277 276 267 271
321 322 323 326 325 325 328 331 335 338 335 345 357 356 354 348 359 347 342 345 343 340 339 346 350 346 342 335 333 328 324 329 326 328 323 311 293 266 283 282 284 281 283 281 278 265 273
323 323 324 326 325 324 327 332 337 340 341 346 356 356 353 341 349 350 347 341 338 341 341 340 344 341 344 336 327 324 322 323 316 313 319 316 313 294 286 279 255 273 274 281 272 272 286
325 323 323 325 326 326 328 333 339 342 346 348 348 359 349 343 335 343 344 339 344 347 342 342 342 351 341 333 333 332 328 323 311 312 313 310 309 301 299 267 250 296 288 276 271 285 287
323 324 323 323 325 326 328 332 338 345 348 350 348 354 352 344 335 331 334 330 329 334 335 341 335 339 347 339 339 335 323 318 261 255 307 303 303 301 294 286 274 286 292 283 285 277 280